Find Starlink 31553

NORAD ID: 59363 Int'l Des: 2024-060 Owner: SPXS Country: US Constellation: starlink operational
LEOCIRCULAR

Current View

Loading 3D Globe...

About Starlink 31553

Starlink 31553 (NORAD 59363) is a starlink constellation satellite (v2 mini) launched Mar 31, 2024 by SPXS of US. It operates in LEO, CIRCULAR orbit with a mass of 730.00 kg.

About Starlink 31553

Description loading...

Upcoming Passes

Passes for default location (London). Set your location on the main map for personalized predictions.

Altitude History

Loading altitude history...

Two-Line Element Set

1 59363U 24060R 26171.02847976 -.00002548 00000-0 -83046-4 0 9994
2 59363 43.0032 35.0157 0001328 267.6896 92.3803 15.27598688125797
Epoch: Jun 20, 2026 • Age: 32 hours

Current Status

Altitude 482.4 km
Velocity 7.63 km/s
Sub-Earth Point 6.59°N, 158.65°E
Launch Date Mar 31, 2024
Age 2.2 years
Type internet

Technical Details

Classification Payload
Mass 730.00 kg
Dry Mass 700.00 kg
Total Mass 730.00 kg
Length 0.30 m
Diameter 4.10 m
Span 29.00 m
Shape Box + pan
Manufacturer SPXS
Bus Type Starlink V2M
Phase Status In Orbit
Owner/State SPXS/US

Most Searched